Location: Usti nad Labem
(50.6670°N, 14.0330°E)
Time: 21:30:55
(UTC+01:00)

Envisat - Pass Details

Date: 08 December 2020
Orbit: 764 x 766 km, 98.1° (Epoch: 15 January)

Event Time Altitude Azimuth Distance (km) Brightness Sun altitude
Rises 06:55:45 0° 9° (N) 3,246 6.1 -8.5°
Reaches altitude 10° 06:58:10 10° 2° (N) 2,315 5.3 -8.2°
Maximum altitude 07:02:55 41° 294° (WNW) 1,105 3.4 -7.5°
Drops below altitude 10° 07:07:38 10° 225° (SW) 2,299 5.3 -6.9°
Sets 07:10:02 0° 219° (SW) 3,221 6.1 -6.5°
